SCP
0 0 0 0 0 0 0 0 0 0 0 0 0 0 0 0 0 0 0 0 0 0 -0 -0 0 0 0 0 0 0 0 0 0 0 0 0 0 0 0 0 0 0 0 -0 -0
0 0 0 0 0 0 0 0 0 0 0 0 0 0 0 0 0 0 0 0 0 0 0 -0 0 0 0 0 0 0 0 0 0 0 0 0 0 0 0 0 0 0 0 -0 -0
0 0 0 0 0 0 0 0 0 0 0 0 0 0 0 0 0 0 0 0 0 0 0 0 0 0 0 0 0 0 0 0 0 0 0 0 0 0 0 0 0 0 -0 -0 -0
0 0 0 0 0 0 0 0 0 0 0 0 0 0 0 0 0 0 0 0 0 0 0 0 0 0 0 0 0 0 0 0 0 0 0 0 0 0 0 0 0 -0 0 0 -0
0 0 -0 -0 0 0 0 0 0 0 0 0 0 0 0 0 0 0 0 0 0 0 0 0 0 0 0 0 0 0 0 0 0 0 0 0 0 0 0 0 0 0 0 0 0
0 0 0 -0 0 0 0 0 0 0 0 0 0 0 0 0 0 0 0 0 0 0 0 0 0 0 0 0 0 0 0 0 0 0 0 0 0 0 0 0 0 0 0 0 0
0 0 0 0 0 0 0 0 0 0 0 0 0 0 0 0 0 0 0 0 0 0 0 0 0 0 0 0 0 0 0 0 0 0 0 0 0 0 0 0 0 0 0 0 0
0 0 0 0 0 0 0 0 0 0 0 0 0 0 0 -0 0 0 0 0 0 0 0 -0 0 0 0 0 0 0 0 0 0 0 0 0 0 0 0 0 0 0 0 0 0
0 0 0 0 0 0 0 0 0 0 0 0 0 0 0 0 0 0 0 0 0 -0 -0 -0 0 0 0 0 0 0 0 0 0 0 0 0 0 0 0 0 0 0 0 0 0
0 0 0 0 0 0 0 0 0 0 0 0 0 0 0 0 0 0 0 0 0 0 -0 0 -0 0 0 0 0 0 0 0 0 0 0 0 0 0 0 0 0 0 0 0 0
0 0 0 0 0 0 0 0 0 -0 -0 0 0 0 0 0 0 0 0 0 0 0 0 -0 0 0 0 0 0 0 0 0 0 0 0 0 0 0 0 0 0 0 0 0 0
0 0 0 0 0 0 0 0 0 0 0 0 0 0 0 0 0 0 0 0 0 0 0 0 0 -0 0 0 0 0 0 0 0 0 0 0 0 0 0 0 0 0 0 0 0
0 0 0 0 0 0 0 0 0 -0 -0 -0 0 0 0 0 0 0 0 0 0 0 0 0 0 0 0 0 0 0 0 0 0 0 0 0 0 0 0 0 0 0 0 0 0
0 0 0 0 0 0 0 0 0 0 0 -0 0 0 0 0 0 0 0 0 0 0 0 0 0 0 0 0 0 0 0 0 0 0 0 0 0 0 0 0 0 0 0 0 0
-0 -0 -0 0 0 0 0 0 0 0 0 0 0 0 0 0 0 0 0 0 0 0 0 0 0 0 0 0 0 0 0 0 0 0 0 0 0 0 0 0 0 0 0 0 0
-0 -0 -0 0 0 0 0 0 0 -0 0 0 0 0 0 0 0 0 0 0 0 0 0 0 0 0 0 0 0 0 0 0 0 0 0 0 0 0 0 0 0 0 0 0 0
-0 -0 0 0 0 0 0 0 0 0 0 0 0 0 0 0 0 0 0 0 0 0 0 0 0 0 0 0 0 0 0 0 0 0 0 0 0 0 0 0 0 0 0 0 0
-0 -0 -0 0 0 0 0 0 0 0 0 0 0 0 0 0 0 0 0 0 0 0 0 0 0 0 0 0 0 0 0 0 0 0 0 0 0 0 0 0 0 0 0 0 0
-0 0 0 0 0 0 0 0 0 0 0 0 0 0 0 0 0 0 0 0 0 0 0 0 0 0 0 0 0 0 0 0 0 0 0 0 0 0 0 0 0 0 0 0 0
0 0 0 -0 0 0 0 0 0 0 0 0 0 0 0 0 0 0 0 0 0 0 0 0 0 0 0 0 0 0 0 0 0 0 0 0 0 0 0 0 0 0 0 0 0
0 0 0 -0 0 0 0 0 0 -0 0 0 0 0 0 0 0 0 0 0 0 0 0 0 0 0 0 0 0 0 0 0 0 0 0 0 0 0 0 0 0 0 0 0 0
0 -0 0 -0 0 0 0 0 0 -0 -0 0 0 0 0 0 0 0 0 0 0 0 0 0 0 0 0 0 0 0 0 0 0 0 0 0 0 0 0 0 0 0 0 0 0
0 0 -0 0 -0 0 0 0 0 0 0 0 0 0 0 0 0 0 0 0 0 0 0 0 0 0 0 0 0 0 0 0 0 0 0 0 0 0 0 0 0 0 0 0 0
0 0 0 0 -0 0 0 0 0 0 0 0 -0 -0 0 0 0 0 0 0 0 0 0 0 0 0 0 0 0 0 0 0 0 0 0 0 0 0 0 0 0 0 0 0 0
-0 -0 0 0 0 -0 0 0 0 0 0 0 0 0 0 0 0 0 0 0 0 0 0 0 0 0 0 0 0 0 0 0 0 0 0 0 0 0 0 0 0 0 0 0 0
-0 0 0 0 0 0 0 0 0 -0 0 0 0 0 0 0 0 0 0 0 0 0 0 0 0 0 0 0 0 0 0 0 0 0 0 0 0 0 0 0 0 0 0 0 0
-0 0 -0 0 0 0 0 0 0 0 0 0 0 0 0 0 0 0 0 0 0 0 0 0 0 0 0 0 0 0 0 0 0 0 0 0 0 0 0 0 0 0 0 0 0
Wind_Speed_500mb
29 27 25 26 29 32 24 20 16 22 21 24 23 27 20 23 43 55 58 54 61 55 48 40 50 37 25 24 25 12 6 11 30 10 14 32 13 8 18 32 16 9 23 42 49
23 24 27 26 27 30 33 30 18 19 19 21 18 20 30 25 28 39 45 58 54 51 33 30 32 34 22 16 16 11 8 18 13 14 21 38 27 20 12 27 24 19 34 47 45
21 21 26 26 23 27 34 37 30 21 18 23 27 22 33 28 24 24 46 49 42 39 19 17 25 20 16 26 26 12 7 5 14 17 20 35 29 27 23 12 32 37 45 41 46
26 22 24 28 25 24 29 32 38 32 21 24 34 21 22 37 14 19 40 42 34 38 16 7 12 4 14 14 11 10 2 9 5 11 7 26 29 23 20 11 30 37 46 46 46
28 25 24 26 26 24 23 30 31 38 30 23 31 31 29 22 10 14 26 39 40 28 13 4 8 8 9 19 13 17 10 5 5 3 2 30 18 17 25 25 30 33 41 43 40
32 31 26 27 28 25 22 24 29 35 36 26 32 32 26 28 26 29 26 29 26 24 15 12 4 0 17 19 14 4 12 17 11 9 2 17 20 9 30 27 30 31 39 37 35
34 34 30 27 25 24 24 22 26 34 38 32 32 35 36 20 33 34 30 32 24 20 14 3 12 9 11 15 8 16 11 13 12 18 2 4 3 8 34 30 30 31 33 32 31
41 34 32 27 25 22 23 22 24 29 39 39 34 34 19 22 22 35 39 41 29 32 23 6 5 2 5 23 22 11 5 13 10 11 4 9 13 15 22 28 28 28 32 32 29
44 36 32 28 24 20 22 21 22 27 32 41 35 35 14 22 39 41 47 56 41 40 35 22 23 15 8 9 7 10 10 17 11 13 7 10 5 23 20 17 24 28 32 30 26
45 37 33 27 22 18 18 21 19 23 31 45 44 30 17 24 47 46 38 35 49 40 23 27 20 5 10 9 13 6 6 13 15 8 5 9 9 9 11 12 8 18 21 24 21
44 38 33 26 23 16 14 10 8 12 31 29 6 22 26 25 42 48 48 35 31 37 15 32 14 20 19 25 9 6 9 10 18 12 8 4 7 17 26 17 6 6 4 10 14
44 39 34 26 21 15 16 6 13 5 12 41 39 49 28 48 27 37 52 23 21 20 21 7 24 23 18 25 17 11 11 4 4 8 8 7 10 13 10 10 10 14 15 16 17
45 39 35 25 21 16 16 14 26 23 7 15 36 26 33 32 22 51 57 22 18 27 24 12 4 13 17 17 20 18 18 11 6 4 8 6 14 15 14 29 25 25 26 27 22
47 43 37 29 15 10 12 8 25 20 7 13 22 21 22 26 13 51 50 25 8 26 24 4 6 13 13 21 13 17 5 5 17 3 2 10 8 13 20 15 13 22 28 24 13
48 47 39 26 11 7 3 18 14 10 9 13 16 28 28 23 47 31 50 22 14 14 14 11 14 16 9 13 13 5 17 10 2 4 10 9 2 12 5 12 14 27 12 15 6
48 44 35 30 5 4 8 14 15 9 13 2 2 16 12 9 20 32 19 16 13 8 10 9 4 8 4 7 9 14 19 16 10 6 4 12 7 9 6 14 9 21 20 12 3
49 36 26 18 8 2 15 20 6 6 3 8 9 16 26 14 16 33 30 18 11 15 9 15 8 4 14 14 7 7 14 4 4 2 8 4 12 19 2 10 15 22 22 16 11
47 42 29 21 7 13 17 3 8 4 7 5 2 22 9 27 15 30 29 19 12 9 13 14 7 13 7 8 15 17 11 8 11 8 5 9 8 9 3 20 32 28 18 17 17
42 33 22 11 9 14 7 5 4 5 8 13 6 17 11 6 15 25 33 29 12 12 8 10 8 6 13 5 18 11 10 5 9 3 6 8 7 8 10 13 21 14 19 20 29
41 25 19 12 14 1 2 3 4 3 8 6 1 4 9 4 24 21 29 17 12 5 7 5 11 8 5 5 10 6 12 7 5 7 5 6 6 8 10 10 16 16 17 29 33
24 10 7 14 8 5 3 6 7 10 6 8 11 6 10 6 11 11 10 8 4 10 4 10 9 7 10 7 13 6 8 3 8 3 6 3 6 7 8 10 18 27 29 31 32
10 6 8 10 5 3 2 3 9 8 9 6 8 10 11 12 8 9 9 6 8 15 11 6 9 8 7 7 9 9 12 7 7 6 3 5 8 6 11 19 39 31 22 23 22
8 7 4 9 1 3 0 3 4 8 12 7 12 15 10 8 6 8 9 18 22 10 6 4 5 10 7 8 5 4 8 5 10 5 10 10 7 5 16 19 22 21 9 8 6
5 3 2 7 8 5 7 2 4 6 7 9 3 4 6 10 16 8 8 17 27 16 20 14 7 5 6 7 3 10 14 14 8 6 6 9 2 6 8 9 5 2 2 15 16
7 3 2 4 5 5 6 3 5 8 9 14 8 14 8 6 7 9 8 12 17 10 10 6 7 7 15 9 10 7 9 16 19 12 7 5 11 9 7 9 27 28 30 21 19
5 6 8 3 8 6 3 6 5 7 9 9 13 19 18 11 9 8 4 11 7 12 6 5 5 4 6 10 9 2 8 10 9 9 11 12 25 14 45 49 43 53 53 51 33
7 11 6 4 2 4 7 6 10 7 15 19 9 18 23 20 30 35 37 31 16 10 6 5 7 3 4 7 4 9 13 20 12 12 13 15 21 25 16 26 32 40 43 23 11
Wind_Direction_500mb
268 271 271 267 265 257 247 253 268 261 253 251 259 245 240 227 238 236 233 239 234 257 269 270 251 274 274 259 252 259 270 245 254 170 124 148 140 129 87 126 113 93 73 148 158
254 264 261 278 272 261 247 246 253 268 251 248 214 227 234 226 224 224 222 232 228 236 263 262 237 278 299 243 220 223 214 247 272 261 142 159 152 138 142 140 125 112 115 147 158
264 257 259 261 276 271 261 244 249 264 249 243 214 185 218 210 216 224 216 218 217 225 238 263 222 260 280 250 213 214 253 257 353 16 122 162 164 156 162 176 165 150 148 157 156
264 265 255 257 264 276 267 253 243 247 256 240 231 188 219 186 211 210 211 214 199 200 202 253 154 205 284 260 206 248 86 322 339 330 82 169 157 164 193 113 151 164 162 157 164
259 262 262 258 263 272 281 250 240 242 247 243 235 229 227 216 216 155 178 195 192 184 202 173 173 169 276 293 235 242 118 137 241 192 320 170 144 163 120 123 111 145 160 163 169
252 253 260 258 262 269 284 275 246 238 240 248 234 220 218 214 214 153 151 178 166 165 183 184 167 171 303 293 336 296 185 138 161 116 353 172 135 185 133 132 133 154 165 170 175
248 245 253 256 253 266 276 273 257 232 240 241 235 225 236 220 205 192 181 187 205 200 187 116 210 165 338 286 301 259 155 143 155 150 161 159 62 232 152 140 149 162 170 175 181
245 242 243 250 244 267 267 260 251 237 235 237 239 220 250 248 205 207 195 194 196 195 169 155 138 274 243 307 305 233 197 151 118 164 243 216 196 201 134 149 160 173 176 180 185
237 238 237 244 243 265 268 252 244 251 230 240 240 201 226 196 207 202 198 199 180 199 186 197 175 196 165 252 193 274 182 146 120 16 145 209 88 104 129 159 203 180 176 179 186
233 230 230 235 239 255 264 245 243 261 229 241 254 197 216 206 198 195 181 189 178 192 194 197 193 221 159 223 185 213 218 124 116 28 343 183 123 93 121 150 233 183 189 154 173
225 220 221 225 230 247 250 275 264 259 233 211 297 201 201 180 182 187 186 177 184 164 182 200 186 191 219 190 232 276 353 354 61 35 39 234 233 163 147 131 172 258 163 183 212
215 209 212 215 221 238 224 214 272 240 271 262 257 207 175 165 159 182 185 168 166 175 167 151 211 193 92 140 149 159 173 291 331 23 356 309 256 261 278 154 221 252 240 230 237
203 198 201 202 212 230 233 259 262 275 310 286 208 195 183 180 174 176 181 168 184 174 172 185 162 192 168 216 163 169 198 200 293 143 207 330 274 246 241 225 220 234 243 247 257
193 188 190 192 204 226 259 284 246 257 262 197 179 200 198 176 154 175 174 162 199 196 158 228 153 154 173 181 182 181 197 122 173 199 189 134 292 270 230 160 183 232 240 251 245
179 180 186 171 163 151 221 226 230 175 272 122 155 168 191 180 136 181 174 184 203 191 148 151 155 157 156 173 176 121 101 172 243 22 1 203 179 254 260 162 191 215 190 146 170
168 172 175 180 140 237 259 196 140 126 249 197 335 159 184 159 176 144 162 166 189 75 93 96 87 104 141 86 119 139 109 97 76 34 267 233 214 249 229 207 130 98 104 112 141
154 164 153 168 153 69 156 143 139 221 307 165 204 144 177 163 144 161 168 174 149 140 156 120 93 72 142 95 103 160 142 97 76 147 220 145 213 244 275 65 113 142 126 128 115
155 164 164 161 145 155 164 117 222 230 294 322 220 116 142 173 143 165 160 168 182 192 144 150 156 192 175 161 165 186 184 158 171 182 207 350 240 256 39 70 118 126 123 140 132
157 156 144 123 155 150 163 226 65 324 312 330 86 165 174 229 150 148 178 176 176 198 143 146 88 146 148 79 138 185 213 16 98 45 69 193 267 318 229 129 118 153 162 166 158
147 123 88 124 154 79 70 33 47 284 330 263 102 318 151 287 132 152 168 167 131 218 13 97 118 140 56 84 66 136 134 80 345 131 203 239 254 222 202 207 166 149 166 157 159
144 86 118 120 126 31 359 11 320 23 2 324 11 29 62 175 124 113 122 51 229 111 15 111 114 137 136 240 153 130 158 157 135 112 168 160 230 316 60 270 164 170 175 168 164
100 76 115 94 47 72 79 318 340 323 279 338 2 48 30 8 70 110 119 104 245 118 94 14 103 123 121 8 355 218 161 144 128 241 238 136 266 25 37 34 110 92 89 118 134
85 93 77 29 100 94 16 292 305 329 5 2 33 52 30 25 87 62 76 19 97 66 110 152 119 107 91 3 22 216 207 197 125 84 201 148 256 6 64 66 63 74 71 121 119
81 90 23 54 91 125 145 85 43 0 328 358 94 109 65 31 41 58 65 40 63 81 69 50 69 66 115 101 139 170 193 206 196 146 174 211 76 93 108 125 121 78 284 312 315
46 72 89 26 36 14 26 297 89 12 324 359 41 33 34 81 55 62 47 101 55 50 59 77 90 92 101 70 33 61 175 207 217 229 201 77 230 266 324 295 297 301 291 281 281
64 132 94 53 336 356 20 343 104 141 10 336 87 52 59 72 77 119 98 75 92 45 65 357 123 94 60 120 103 135 269 266 272 259 279 275 268 267 274 274 272 272 276 281 288
56 118 90 332 324 343 4 11 25 66 74 29 53 86 54 47 65 74 84 57 110 120 117 106 125 98 122 353 73 338 219 209 210 207 203 229 241 253 263 258 253 260 260 245 244
Wind_Speed_850mb
29 27 25 26 29 32 24 20 16 22 21 24 23 27 20 23 43 55 58 54 61 55 48 40 50 37 25 24 25 12 6 11 30 10 14 32 13 8 18 32 16 9 23 42 49
23 24 27 26 27 30 33 30 18 19 19 21 18 20 30 25 28 39 45 58 54 51 33 30 32 34 22 16 16 11 8 18 13 14 21 38 27 20 12 27 24 19 34 47 45
21 21 26 26 23 27 34 37 30 21 18 23 27 22 33 28 24 24 46 49 42 39 19 17 25 20 16 26 26 12 7 5 14 17 20 35 29 27 23 12 32 37 45 41 46
26 22 24 28 25 24 29 32 38 32 21 24 34 21 22 37 14 19 40 42 34 38 16 7 12 4 14 14 11 10 2 9 5 11 7 26 29 23 20 11 30 37 46 46 46
28 25 24 26 26 24 23 30 31 38 30 23 31 31 29 22 10 14 26 39 40 28 13 4 8 8 9 19 13 17 10 5 5 3 2 30 18 17 25 25 30 33 41 43 40
32 31 26 27 28 25 22 24 29 35 36 26 32 32 26 28 26 29 26 29 26 24 15 12 4 0 17 19 14 4 12 17 11 9 2 17 20 9 30 27 30 31 39 37 35
34 34 30 27 25 24 24 22 26 34 38 32 32 35 36 20 33 34 30 32 24 20 14 3 12 9 11 15 8 16 11 13 12 18 2 4 3 8 34 30 30 31 33 32 31
41 34 32 27 25 22 23 22 24 29 39 39 34 34 19 22 22 35 39 41 29 32 23 6 5 2 5 23 22 11 5 13 10 11 4 9 13 15 22 28 28 28 32 32 29
44 36 32 28 24 20 22 21 22 27 32 41 35 35 14 22 39 41 47 56 41 40 35 22 23 15 8 9 7 10 10 17 11 13 7 10 5 23 20 17 24 28 32 30 26
45 37 33 27 22 18 18 21 19 23 31 45 44 30 17 24 47 46 38 35 49 40 23 27 20 5 10 9 13 6 6 13 15 8 5 9 9 9 11 12 8 18 21 24 21
44 38 33 26 23 16 14 10 8 12 31 29 6 22 26 25 42 48 48 35 31 37 15 32 14 20 19 25 9 6 9 10 18 12 8 4 7 17 26 17 6 6 4 10 14
44 39 34 26 21 15 16 6 13 5 12 41 39 49 28 48 27 37 52 23 21 20 21 7 24 23 18 25 17 11 11 4 4 8 8 7 10 13 10 10 10 14 15 16 17
45 39 35 25 21 16 16 14 26 23 7 15 36 26 33 32 22 51 57 22 18 27 24 12 4 13 17 17 20 18 18 11 6 4 8 6 14 15 14 29 25 25 26 27 22
47 43 37 29 15 10 12 8 25 20 7 13 22 21 22 26 13 51 50 25 8 26 24 4 6 13 13 21 13 17 5 5 17 3 2 10 8 13 20 15 13 22 28 24 13
48 47 39 26 11 7 3 18 14 10 9 13 16 28 28 23 47 31 50 22 14 14 14 11 14 16 9 13 13 5 17 10 2 4 10 9 2 12 5 12 14 27 12 15 6
48 44 35 30 5 4 8 14 15 9 13 2 2 16 12 9 20 32 19 16 13 8 10 9 4 8 4 7 9 14 19 16 10 6 4 12 7 9 6 14 9 21 20 12 3
49 36 26 18 8 2 15 20 6 6 3 8 9 16 26 14 16 33 30 18 11 15 9 15 8 4 14 14 7 7 14 4 4 2 8 4 12 19 2 10 15 22 22 16 11
47 42 29 21 7 13 17 3 8 4 7 5 2 22 9 27 15 30 29 19 12 9 13 14 7 13 7 8 15 17 11 8 11 8 5 9 8 9 3 20 32 28 18 17 17
42 33 22 11 9 14 7 5 4 5 8 13 6 17 11 6 15 25 33 29 12 12 8 10 8 6 13 5 18 11 10 5 9 3 6 8 7 8 10 13 21 14 19 20 29
41 25 19 12 14 1 2 3 4 3 8 6 1 4 9 4 24 21 29 17 12 5 7 5 11 8 5 5 10 6 12 7 5 7 5 6 6 8 10 10 16 16 17 29 33
24 10 7 14 8 5 3 6 7 10 6 8 11 6 10 6 11 11 10 8 4 10 4 10 9 7 10 7 13 6 8 3 8 3 6 3 6 7 8 10 18 27 29 31 32
10 6 8 10 5 3 2 3 9 8 9 6 8 10 11 12 8 9 9 6 8 15 11 6 9 8 7 7 9 9 12 7 7 6 3 5 8 6 11 19 39 31 22 23 22
8 7 4 9 1 3 0 3 4 8 12 7 12 15 10 8 6 8 9 18 22 10 6 4 5 10 7 8 5 4 8 5 10 5 10 10 7 5 16 19 22 21 9 8 6
5 3 2 7 8 5 7 2 4 6 7 9 3 4 6 10 16 8 8 17 27 16 20 14 7 5 6 7 3 10 14 14 8 6 6 9 2 6 8 9 5 2 2 15 16
7 3 2 4 5 5 6 3 5 8 9 14 8 14 8 6 7 9 8 12 17 10 10 6 7 7 15 9 10 7 9 16 19 12 7 5 11 9 7 9 27 28 30 21 19
5 6 8 3 8 6 3 6 5 7 9 9 13 19 18 11 9 8 4 11 7 12 6 5 5 4 6 10 9 2 8 10 9 9 11 12 25 14 45 49 43 53 53 51 33
7 11 6 4 2 4 7 6 10 7 15 19 9 18 23 20 30 35 37 31 16 10 6 5 7 3 4 7 4 9 13 20 12 12 13 15 21 25 16 26 32 40 43 23 11
Wind_Direction_850mb
268 271 271 267 265 257 247 253 268 261 253 251 259 245 240 227 238 236 233 239 234 257 269 270 251 274 274 259 252 259 270 245 254 170 124 148 140 129 87 126 113 93 73 148 158
254 264 261 278 272 261 247 246 253 268 251 248 214 227 234 226 224 224 222 232 228 236 263 262 237 278 299 243 220 223 214 247 272 261 142 159 152 138 142 140 125 112 115 147 158
264 257 259 261 276 271 261 244 249 264 249 243 214 185 218 210 216 224 216 218 217 225 238 263 222 260 280 250 213 214 253 257 353 16 122 162 164 156 162 176 165 150 148 157 156
264 265 255 257 264 276 267 253 243 247 256 240 231 188 219 186 211 210 211 214 199 200 202 253 154 205 284 260 206 248 86 322 339 330 82 169 157 164 193 113 151 164 162 157 164
259 262 262 258 263 272 281 250 240 242 247 243 235 229 227 216 216 155 178 195 192 184 202 173 173 169 276 293 235 242 118 137 241 192 320 170 144 163 120 123 111 145 160 163 169
252 253 260 258 262 269 284 275 246 238 240 248 234 220 218 214 214 153 151 178 166 165 183 184 167 171 303 293 336 296 185 138 161 116 353 172 135 185 133 132 133 154 165 170 175
248 245 253 256 253 266 276 273 257 232 240 241 235 225 236 220 205 192 181 187 205 200 187 116 210 165 338 286 301 259 155 143 155 150 161 159 62 232 152 140 149 162 170 175 181
245 242 243 250 244 267 267 260 251 237 235 237 239 220 250 248 205 207 195 194 196 195 169 155 138 274 243 307 305 233 197 151 118 164 243 216 196 201 134 149 160 173 176 180 185
237 238 237 244 243 265 268 252 244 251 230 240 240 201 226 196 207 202 198 199 180 199 186 197 175 196 165 252 193 274 182 146 120 16 145 209 88 104 129 159 203 180 176 179 186
233 230 230 235 239 255 264 245 243 261 229 241 254 197 216 206 198 195 181 189 178 192 194 197 193 221 159 223 185 213 218 124 116 28 343 183 123 93 121 150 233 183 189 154 173
225 220 221 225 230 247 250 275 264 259 233 211 297 201 201 180 182 187 186 177 184 164 182 200 186 191 219 190 232 276 353 354 61 35 39 234 233 163 147 131 172 258 163 183 212
215 209 212 215 221 238 224 214 272 240 271 262 257 207 175 165 159 182 185 168 166 175 167 151 211 193 92 140 149 159 173 291 331 23 356 309 256 261 278 154 221 252 240 230 237
203 198 201 202 212 230 233 259 262 275 310 286 208 195 183 180 174 176 181 168 184 174 172 185 162 192 168 216 163 169 198 200 293 143 207 330 274 246 241 225 220 234 243 247 257
193 188 190 192 204 226 259 284 246 257 262 197 179 200 198 176 154 175 174 162 199 196 158 228 153 154 173 181 182 181 197 122 173 199 189 134 292 270 230 160 183 232 240 251 245
179 180 186 171 163 151 221 226 230 175 272 122 155 168 191 180 136 181 174 184 203 191 148 151 155 157 156 173 176 121 101 172 243 22 1 203 179 254 260 162 191 215 190 146 170
168 172 175 180 140 237 259 196 140 126 249 197 335 159 184 159 176 144 162 166 189 75 93 96 87 104 141 86 119 139 109 97 76 34 267 233 214 249 229 207 130 98 104 112 141
154 164 153 168 153 69 156 143 139 221 307 165 204 144 177 163 144 161 168 174 149 140 156 120 93 72 142 95 103 160 142 97 76 147 220 145 213 244 275 65 113 142 126 128 115
155 164 164 161 145 155 164 117 222 230 294 322 220 116 142 173 143 165 160 168 182 192 144 150 156 192 175 161 165 186 184 158 171 182 207 350 240 256 39 70 118 126 123 140 132
157 156 144 123 155 150 163 226 65 324 312 330 86 165 174 229 150 148 178 176 176 198 143 146 88 146 148 79 138 185 213 16 98 45 69 193 267 318 229 129 118 153 162 166 158
147 123 88 124 154 79 70 33 47 284 330 263 102 318 151 287 132 152 168 167 131 218 13 97 118 140 56 84 66 136 134 80 345 131 203 239 254 222 202 207 166 149 166 157 159
144 86 118 120 126 31 359 11 320 23 2 324 11 29 62 175 124 113 122 51 229 111 15 111 114 137 136 240 153 130 158 157 135 112 168 160 230 316 60 270 164 170 175 168 164
100 76 115 94 47 72 79 318 340 323 279 338 2 48 30 8 70 110 119 104 245 118 94 14 103 123 121 8 355 218 161 144 128 241 238 136 266 25 37 34 110 92 89 118 134
85 93 77 29 100 94 16 292 305 329 5 2 33 52 30 25 87 62 76 19 97 66 110 152 119 107 91 3 22 216 207 197 125 84 201 148 256 6 64 66 63 74 71 121 119
81 90 23 54 91 125 145 85 43 0 328 358 94 109 65 31 41 58 65 40 63 81 69 50 69 66 115 101 139 170 193 206 196 146 174 211 76 93 108 125 121 78 284 312 315
46 72 89 26 36 14 26 297 89 12 324 359 41 33 34 81 55 62 47 101 55 50 59 77 90 92 101 70 33 61 175 207 217 229 201 77 230 266 324 295 297 301 291 281 281
64 132 94 53 336 356 20 343 104 141 10 336 87 52 59 72 77 119 98 75 92 45 65 357 123 94 60 120 103 135 269 266 272 259 279 275 268 267 274 274 272 272 276 281 288
56 118 90 332 324 343 4 11 25 66 74 29 53 86 54 47 65 74 84 57 110 120 117 106 125 98 122 353 73 338 219 209 210 207 203 229 241 253 263 258 253 260 260 245 244